カタログに戻る

INTELSAT 26

JCSAT 4

運用中通信GEO
NORAD 24732·PAYLOAD· XX

打ち上げ Feb 17, 1997 から Cape Canaveral Space Force Station

Loading…

TLE

最新Source: Space-Track

元期: Sep 14, 2026, 12:13 UTC

1 24732U 97007A   26257.50926863 -.00000061  00000-0  00000-0 0  9990
2 24732  12.4154  28.8409 0009648 275.7739 259.4350  0.98907463107939

AllMySatでINTELSAT 26をリアルタイム追跡

Download on the App Store